Temperature
26 26 25 25 25 24 24 24 24 23 23 23 22 21 20 19 18 17 16 16 15 14 13 12 11 11 10 10 9 9 9 8 8 8 8 8 8 8 8 8 9 9 9 9
25 25 25 24 24 24 24 24 23 23 23 23 22 20 19 18 17 16 16 15 14 13 12 11 10 10 9 9 8 8 8 7 7 7 7 7 7 7 7 7 8 8 8 8
26 25 24 24 24 24 24 24 23 23 22 22 21 20 18 17 16 15 14 13 13 12 11 10 10 9 9 8 8 7 7 7 7 7 6 6 6 6 6 6 7 7 7 7
25 24 23 24 25 24 23 23 23 23 22 22 20 19 17 17 15 14 13 12 12 11 10 10 9 9 8 8 7 7 7 6 6 6 6 6 6 6 6 6 6 6 6 7
25 25 25 24 23 23 23 23 23 22 22 20 19 18 19 17 15 13 12 11 11 10 10 9 8 8 7 7 7 6 6 6 6 6 5 5 5 5 5 5 5 6 6 6
25 23 23 24 24 22 22 22 22 21 20 19 19 19 19 16 14 13 12 11 10 9 9 8 8 7 7 6 6 6 6 5 5 5 5 5 5 5 5 5 5 5 5 6
24 24 25 24 23 22 22 22 21 20 19 18 18 17 15 14 13 12 11 10 10 9 8 8 7 7 6 6 6 6 5 5 5 5 5 5 5 5 5 5 5 5 5 5
24 23 24 23 23 23 22 21 20 19 18 17 16 15 15 13 12 11 11 10 9 8 8 7 7 6 6 6 6 5 5 5 5 5 5 5 5 5 5 5 5 5 5 5
25 24 23 23 23 22 20 20 19 18 17 16 15 15 14 13 12 11 10 9 9 8 7 7 6 6 6 6 5 5 5 5 5 5 5 5 5 5 5 5 5 5 5 5
23 24 23 22 21 20 19 19 18 17 16 15 15 14 13 12 11 10 10 9 8 7 7 7 6 6 6 5 5 5 5 5 5 5 5 5 5 5 5 5 5 5 5 5
23 24 23 22 21 20 19 18 17 16 15 14 14 13 12 11 11 10 9 8 8 7 7 6 6 6 6 5 5 5 5 5 5 5 5 5 5 5 5 5 5 5 5 5
24 24 23 23 21 19 18 17 17 16 15 14 13 12 12 11 10 9 9 8 8 7 7 6 6 6 6 5 5 5 5 5 5 6 6 6 6 6 6 5 5 5 5 5
23 23 23 21 20 19 18 17 16 15 14 13 13 12 11 10 10 9 8 8 7 7 6 6 6 6 5 5 5 5 5 5 6 6 6 6 6 6 6 6 6 5 5 5
21 20 21 20 20 18 17 16 16 15 14 13 12 12 11 10 10 9 8 8 7 7 6 6 6 6 6 6 6 6 6 6 6 6 6 6 6 6 6 6 6 5 5 5
20 20 20 20 19 18 16 16 15 15 14 13 12 12 11 10 9 8 8 7 7 7 6 6 6 6 6 6 6 6 6 6 6 6 7 7 6 6 6 6 6 6 6 5
20 19 19 19 18 17 16 16 16 15 14 13 12 11 10 9 9 8 8 7 7 7 6 6 6 6 6 6 6 6 6 6 6 7 7 7 7 7 6 6 6 6 6 6
20 19 19 19 18 17 17 16 15 15 14 13 12 11 10 9 9 8 8 7 7 6 6 6 6 6 6 6 6 6 7 7 7 7 7 7 7 7 7 7 6 6 6 6
20 20 19 19 19 18 16 16 15 14 13 12 11 11 10 9 9 8 7 7 7 7 6 6 6 6 6 6 6 6 7 7 7 7 7 7 7 7 7 7 7 7 6 6
19 19 19 18 17 17 16 15 14 13 12 11 11 10 10 9 8 8 7 7 7 7 7 7 7 7 7 7 6 7 7 7 7 7 8 7 8 7 7 7 7 7 7 7
17 18 17 17 16 16 15 14 13 13 12 11 10 10 10 9 8 8 7 7 7 6 7 7 7 7 7 7 7 7 7 7 7 8 8 8 8 8 8 7 7 7 7 7
17 17 16 16 16 15 15 14 13 12 12 11 10 10 9 9 8 8 7 7 7 7 7 7 7 7 7 7 7 7 7 8 8 8 8 8 8 8 8 8 8 8 8 8
16 16 16 15 15 15 14 14 13 12 11 11 10 10 9 9 8 8 7 7 6 7 7 7 7 7 7 7 7 7 7 8 8 8 8 8 9 9 9 9 9 9 9 9
14 15 14 15 14 14 14 13 13 12 11 11 10 10 9 9 8 8 7 7 7 7 7 7 7 7 7 7 7 7 7 8 8 8 8 9 9 9 9 9 9 9 9 9
13 14 14 14 14 14 13 13 13 12 11 11 10 10 9 9 8 8 7 7 7 7 7 7 7 7 7 7 7 7 7 8 8 8 9 9 9 9 9 10 10 10 10 10
13 13 13 13 13 13 13 13 12 12 11 11 10 10 9 8 8 8 7 7 7 7 7 7 7 7 7 7 7 7 8 8 8 8 8 9 9 9 10 10 10 10 10 10
13 13 13 13 13 13 13 13 12 12 12 11 10 10 9 8 8 7 7 6 6 6 6 7 7 7 7 7 7 7 8 8 8 8 8 9 9 9 9 10 10 10 10 10
13 13 13 13 13 13 13 12 12 12 11 11 10 10 9 8 8 7 7 6 6 6 6 6 7 7 7 7 7 7 7 8 8 8 8 9 9 9 10 10 10 10 10 10
Wind_Speed
2 2 3 3 2 2 3 6 9 11 14 14 13 13 13 14 16 17 17 17 17 17 17 18 18 18 18 18 18 18 18 19 19 19 19 19 19 19 19 19 19 19 19 19
3 2 4 6 5 4 4 6 10 12 13 11 11 12 13 15 17 17 17 18 18 19 19 19 18 18 18 18 18 18 18 19 19 19 19 19 19 18 19 19 18 18 19 19
6 2 8 7 6 6 6 8 10 13 14 15 15 15 16 16 16 16 17 19 19 19 19 18 18 18 18 18 18 18 18 19 19 19 19 19 19 18 18 18 17 17 18 17
7 5 7 2 3 3 6 9 9 10 13 14 14 15 15 12 12 15 18 19 19 18 19 19 19 18 17 18 18 18 18 19 19 19 19 18 18 18 18 16 15 15 16 16
7 10 9 3 4 3 6 11 6 10 13 14 15 16 11 8 12 15 17 18 17 18 19 19 18 18 17 18 18 18 18 19 19 18 19 18 18 17 16 14 14 14 14 15
9 11 11 1 6 2 5 6 3 9 12 14 15 14 12 15 16 17 17 16 17 18 19 18 17 17 18 18 18 18 18 18 18 18 17 17 17 15 14 13 13 13 13 13
11 12 8 6 7 4 6 8 7 9 10 12 12 12 15 17 16 16 17 18 17 17 17 17 17 17 18 18 18 18 17 18 18 17 16 16 15 13 12 11 12 12 12 12
7 8 4 9 5 4 6 5 6 8 9 11 12 14 15 16 16 17 17 18 18 17 17 17 17 16 17 17 17 17 17 17 17 17 15 14 13 12 11 10 10 10 10 11
5 5 3 5 5 3 3 6 6 7 9 10 13 14 15 15 16 16 17 17 17 17 17 17 16 16 17 17 17 17 17 17 16 16 14 13 12 11 10 8 7 7 7 8
7 7 5 6 7 6 6 6 6 6 8 10 12 14 15 15 15 16 16 16 16 17 17 17 17 16 16 16 16 16 17 16 15 14 13 12 9 8 8 7 6 6 6 6
10 9 6 8 8 6 5 5 5 6 7 9 11 13 14 14 15 15 15 16 16 16 16 17 17 17 16 15 15 15 15 14 14 12 11 10 9 7 7 6 5 6 5 5
8 5 6 4 4 5 6 6 5 6 7 8 10 12 13 14 14 15 15 16 16 17 17 17 16 16 16 14 14 14 13 12 11 10 9 8 8 6 3 5 4 5 6 6
8 6 6 3 5 5 5 4 4 4 6 8 9 10 12 13 13 15 15 16 16 17 17 16 16 16 15 14 14 14 13 12 10 9 9 8 8 7 5 2 4 3 3 3
8 6 7 8 6 6 5 4 3 4 5 7 8 10 11 13 14 15 15 16 16 16 16 15 15 16 15 15 14 14 13 11 11 9 8 7 7 7 6 5 2 1 3 2
10 11 9 6 7 7 6 5 5 5 5 6 8 9 11 13 14 15 15 15 15 15 15 15 15 16 15 15 14 14 12 9 9 9 8 7 6 6 5 4 3 2 1 2
9 11 10 9 9 8 7 7 6 5 5 6 8 9 11 12 13 14 14 14 15 15 15 14 15 16 16 14 14 11 9 9 10 9 7 6 6 5 5 4 3 2 2 1
10 13 13 13 11 10 8 7 5 4 5 6 7 9 11 12 13 13 14 14 14 13 13 13 14 16 15 14 13 10 9 8 8 7 6 6 6 5 5 4 3 3 2 2
11 11 11 10 10 9 8 7 5 4 4 5 7 8 10 12 13 14 14 15 14 13 12 14 15 17 15 13 12 9 8 8 7 6 6 6 6 5 5 5 4 3 2 1
8 8 8 8 7 7 7 6 5 4 3 4 6 8 9 10 11 12 13 13 13 13 14 16 18 16 14 14 14 9 8 8 6 5 5 4 4 5 5 5 4 4 3 2
6 7 8 8 8 7 6 6 5 4 4 4 5 7 9 10 11 12 12 11 8 10 14 15 15 13 13 13 15 9 8 7 5 4 5 5 5 5 5 4 4 4 4 3
5 7 8 9 8 8 7 7 6 6 5 5 5 7 8 9 10 10 11 10 10 12 14 13 10 11 12 14 14 8 7 6 5 4 4 5 5 5 5 5 5 4 4 4
6 6 8 9 9 9 8 8 8 7 6 6 5 6 7 8 9 9 9 7 9 11 12 9 9 13 17 16 8 8 7 7 5 5 4 5 4 4 5 5 5 5 5 5
8 7 8 9 9 9 9 9 9 8 8 7 6 5 6 6 7 8 8 8 9 12 11 8 12 18 20 10 7 7 7 7 6 5 5 4 4 5 5 6 6 6 6 6
10 9 9 9 9 9 10 10 9 8 8 7 6 5 5 5 5 5 7 6 7 10 9 8 12 16 15 7 7 7 7 7 7 6 5 4 4 4 5 5 6 6 6 7
12 11 11 10 10 10 10 10 10 10 10 7 6 5 4 3 4 5 6 8 8 8 8 8 10 13 9 7 7 7 6 7 7 7 5 5 4 4 5 5 6 6 6 7
13 12 11 11 11 9 9 8 8 8 8 8 6 5 3 2 3 4 4 6 8 8 7 7 8 8 8 7 7 7 7 6 6 6 6 5 5 5 5 5 6 6 6 7
14 12 10 10 11 10 9 9 9 9 8 8 7 5 4 2 1 2 4 5 5 6 6 6 7 7 7 7 7 7 6 6 6 6 6 5 5 4 5 5 5 5 6 7
Wind_Direction
25 353 299 291 276 308 344 342 324 325 320 330 340 331 322 316 317 318 318 319 319 317 315 313 311 310 308 307 306 305 302 299 297 296 293 289 285 282 277 272 266 259 253 249
248 250 279 266 247 253 294 323 323 318 323 344 329 317 316 318 320 319 320 321 320 317 315 313 312 310 308 307 306 305 302 300 299 297 295 292 288 285 281 275 268 263 256 251
293 278 281 265 233 248 284 318 321 319 327 330 323 322 321 318 316 319 320 320 318 317 315 313 311 311 309 308 307 305 302 300 299 297 294 292 289 286 283 279 273 265 259 254
291 282 281 29 107 264 290 305 311 316 324 328 322 321 312 309 318 320 319 318 317 316 314 313 314 314 312 310 308 306 304 303 301 299 296 294 290 287 283 279 274 268 262 256
283 286 290 178 183 243 296 304 313 323 325 323 325 315 315 5 333 320 318 317 316 315 314 315 314 315 315 311 309 307 307 306 304 302 299 295 290 286 284 279 274 268 261 254
272 288 297 340 134 143 282 289 15 327 322 324 323 317 330 342 329 323 321 318 316 316 315 314 317 318 313 309 309 308 309 308 306 304 300 297 294 289 285 278 272 268 261 253
272 278 285 120 140 193 287 343 351 327 322 319 321 312 315 321 323 322 319 318 318 318 316 317 317 315 310 310 310 311 311 308 307 305 303 299 296 292 285 276 272 267 261 255
272 276 286 136 173 259 321 336 319 319 319 317 313 312 316 319 321 320 320 321 323 320 319 318 318 316 312 311 312 312 310 308 308 307 305 303 302 295 289 278 270 264 256 251
274 295 86 182 230 271 299 296 308 312 317 317 313 316 320 321 321 321 322 323 323 321 319 319 320 318 312 313 315 313 310 309 309 308 306 305 302 298 294 282 268 263 253 244
263 265 239 225 236 245 254 274 294 302 310 313 314 318 321 321 320 322 324 324 324 322 320 320 322 319 314 315 316 313 311 312 311 311 311 312 308 300 295 291 280 269 260 254
260 267 254 233 231 238 237 247 267 287 303 311 315 317 321 319 320 323 323 324 323 321 320 320 322 319 318 319 318 315 314 314 314 314 315 315 314 309 308 308 302 286 277 270
273 265 244 238 192 206 220 237 260 287 301 310 315 317 319 318 321 322 323 323 322 323 323 322 322 320 320 321 320 317 316 317 315 315 317 316 317 319 278 274 291 276 274 286
264 258 245 210 190 199 215 230 250 274 297 309 315 317 318 318 320 323 324 324 325 324 323 322 322 321 322 325 323 318 316 315 314 315 317 322 325 326 326 272 215 230 247 259
238 227 225 219 213 200 209 216 243 269 289 304 314 317 319 320 322 325 327 325 325 324 323 324 324 324 328 328 323 319 317 314 313 314 318 325 331 331 331 343 353 127 163 175
225 220 229 213 195 188 198 213 242 270 295 308 315 319 323 324 324 325 325 325 327 326 327 329 327 328 331 328 323 320 319 322 323 320 324 334 337 338 346 354 359 17 55 137
229 217 217 207 203 200 206 221 249 279 299 310 317 322 324 323 322 323 327 330 331 329 328 328 328 330 329 326 323 320 319 315 316 322 333 345 351 354 2 9 13 20 24 29
222 212 211 213 211 210 214 224 244 270 292 305 318 322 323 325 325 329 331 334 332 326 327 333 332 331 328 326 326 322 320 323 314 321 348 355 359 6 10 20 29 36 43 38
231 228 218 214 210 205 206 212 225 246 276 302 312 320 326 328 329 330 330 331 329 329 338 341 337 331 327 331 331 323 322 329 336 346 357 4 3 11 20 27 28 29 40 112
235 221 202 190 188 189 193 199 210 228 252 283 306 319 324 326 328 328 329 328 330 335 340 338 332 329 332 336 333 321 324 331 341 349 359 3 4 25 28 27 21 16 18 32
234 212 196 185 181 183 186 191 202 218 240 269 295 311 323 330 330 329 328 325 342 343 333 330 328 332 335 335 330 324 331 338 347 356 10 15 25 32 35 29 15 10 18 22
257 224 208 197 192 190 191 197 208 221 234 253 282 305 319 325 328 329 327 328 344 348 334 322 329 338 336 328 315 328 341 349 357 6 17 22 29 33 35 31 28 32 34 36
294 255 233 218 208 204 197 200 209 220 231 245 269 294 311 321 327 328 327 333 337 349 335 331 341 340 333 322 328 343 349 355 5 12 24 27 30 36 39 41 45 46 47 49
305 277 254 237 226 221 212 210 211 217 226 236 253 278 304 319 324 325 327 344 339 340 329 337 340 334 328 329 344 347 351 358 1 7 18 29 35 39 45 46 49 49 49 51
307 288 266 249 236 227 221 219 215 217 224 231 237 253 281 301 314 327 332 337 340 334 330 343 337 331 325 340 350 352 353 356 355 355 8 27 38 41 46 55 58 55 54 54
302 290 274 253 238 234 230 223 215 214 220 225 229 225 248 285 310 325 329 333 345 336 334 341 337 330 338 350 354 354 356 0 351 346 3 15 26 39 43 50 56 60 60 59
294 282 273 258 249 243 235 226 222 218 216 217 218 215 227 252 289 313 327 336 344 340 339 345 346 343 350 353 357 357 356 353 350 355 5 12 26 32 37 38 45 51 58 60
286 277 267 260 250 240 233 228 226 222 218 215 210 199 202 221 275 333 343 346 349 349 350 352 352 352 352 355 355 358 359 0 359 356 360 7 18 27 29 25 34 43 50 56
Height
1500 1499 1500 1501 1502 1503 1504 1506 1507 1506 1503 1499 1500 1503 1504 1504 1502 1500 1497 1495 1493 1490 1486 1482 1478 1474 1470 1466 1461 1457 1453 1449 1445 1441 1437 1434 1431 1428 1426 1424 1423 1423 1423 1424
1502 1501 1501 1503 1502 1503 1504 1504 1503 1502 1500 1498 1502 1502 1502 1501 1499 1497 1494 1492 1489 1485 1481 1477 1473 1468 1464 1459 1455 1450 1446 1441 1437 1433 1429 1425 1421 1418 1416 1414 1413 1412 1412 1413
1500 1499 1502 1502 1499 1501 1502 1501 1502 1503 1501 1499 1499 1500 1500 1499 1497 1495 1492 1489 1485 1481 1477 1472 1468 1463 1458 1453 1449 1444 1439 1434 1429 1425 1420 1416 1412 1409 1406 1404 1403 1402 1402 1403
1498 1504 1514 1500 1496 1499 1501 1500 1498 1498 1498 1499 1499 1499 1498 1495 1495 1493 1490 1486 1481 1477 1472 1467 1462 1457 1452 1447 1443 1437 1432 1427 1422 1417 1412 1407 1403 1400 1397 1395 1393 1392 1392 1393
1498 1499 1495 1495 1497 1499 1501 1499 1497 1498 1499 1498 1497 1496 1490 1492 1493 1490 1486 1482 1477 1472 1467 1462 1457 1452 1447 1441 1436 1431 1426 1420 1415 1410 1404 1399 1395 1391 1388 1386 1384 1384 1384 1384
1497 1505 1506 1493 1495 1499 1502 1498 1497 1498 1498 1497 1496 1491 1488 1490 1489 1486 1482 1478 1473 1468 1462 1457 1452 1447 1441 1436 1431 1425 1419 1413 1408 1403 1397 1392 1388 1384 1381 1378 1377 1376 1376 1376
1494 1497 1488 1489 1495 1500 1501 1498 1498 1498 1498 1497 1495 1494 1492 1488 1485 1482 1478 1473 1468 1463 1458 1452 1447 1442 1436 1431 1425 1419 1413 1407 1402 1396 1391 1386 1381 1377 1374 1371 1370 1369 1369 1370
1493 1498 1493 1491 1494 1495 1496 1496 1497 1497 1496 1495 1494 1491 1489 1485 1482 1478 1474 1469 1464 1458 1453 1448 1443 1437 1431 1425 1420 1413 1407 1402 1396 1390 1386 1381 1376 1372 1369 1366 1364 1364 1364 1364
1487 1489 1489 1490 1491 1493 1495 1495 1495 1495 1494 1493 1491 1488 1485 1482 1478 1474 1470 1465 1460 1455 1449 1443 1438 1433 1426 1420 1414 1408 1402 1396 1390 1385 1380 1376 1372 1368 1364 1362 1360 1360 1359 1359
1487 1482 1486 1489 1490 1491 1492 1492 1492 1492 1492 1490 1488 1485 1482 1479 1475 1471 1466 1461 1456 1450 1444 1439 1433 1428 1422 1415 1409 1403 1397 1392 1386 1381 1376 1372 1368 1365 1362 1359 1358 1357 1356 1356
1484 1482 1484 1485 1487 1488 1489 1489 1490 1489 1489 1488 1485 1483 1480 1476 1472 1467 1462 1457 1452 1447 1441 1435 1429 1423 1417 1411 1405 1399 1393 1388 1383 1378 1374 1369 1365 1362 1359 1357 1355 1354 1354 1354
1478 1478 1480 1481 1484 1485 1486 1486 1487 1487 1486 1484 1483 1480 1476 1473 1469 1464 1459 1454 1449 1443 1438 1431 1425 1419 1413 1407 1401 1396 1390 1385 1380 1376 1372 1368 1364 1361 1358 1355 1353 1352 1351 1351
1477 1477 1478 1479 1481 1482 1483 1483 1484 1483 1483 1481 1479 1477 1473 1469 1465 1461 1456 1451 1445 1440 1434 1428 1421 1416 1410 1404 1398 1393 1388 1383 1378 1374 1370 1367 1363 1360 1357 1355 1352 1351 1350 1349
1475 1476 1476 1477 1478 1479 1480 1480 1480 1480 1479 1478 1476 1473 1470 1466 1462 1458 1453 1447 1442 1436 1431 1425 1419 1413 1407 1401 1395 1390 1385 1381 1377 1373 1370 1366 1363 1359 1356 1354 1352 1351 1350 1349
1470 1471 1472 1473 1475 1475 1476 1477 1477 1477 1476 1475 1473 1470 1467 1463 1459 1454 1449 1444 1439 1433 1428 1422 1416 1410 1404 1398 1393 1388 1384 1380 1376 1373 1369 1366 1363 1360 1357 1354 1353 1351 1350 1349
1466 1467 1468 1470 1471 1472 1473 1473 1474 1473 1473 1471 1470 1467 1464 1460 1456 1451 1447 1442 1436 1431 1425 1419 1414 1408 1402 1396 1391 1387 1383 1379 1376 1373 1370 1366 1363 1360 1358 1355 1354 1352 1351 1350
1461 1462 1463 1465 1467 1468 1469 1470 1470 1470 1469 1468 1466 1464 1461 1457 1453 1449 1444 1439 1434 1428 1423 1418 1412 1406 1400 1395 1390 1386 1383 1379 1376 1373 1370 1367 1364 1362 1359 1357 1355 1353 1352 1351
1457 1458 1459 1461 1462 1464 1465 1466 1466 1466 1466 1465 1463 1461 1458 1454 1450 1446 1441 1436 1431 1426 1422 1416 1410 1404 1399 1395 1390 1386 1383 1380 1377 1375 1372 1369 1366 1364 1362 1359 1357 1356 1354 1352
1454 1455 1456 1457 1459 1460 1461 1462 1463 1463 1462 1461 1460 1457 1455 1451 1447 1443 1438 1433 1429 1424 1419 1413 1408 1403 1399 1394 1390 1386 1383 1381 1378 1376 1374 1371 1368 1366 1364 1362 1360 1358 1356 1354
1451 1452 1453 1454 1455 1457 1458 1459 1459 1459 1459 1458 1456 1454 1451 1448 1444 1440 1436 1432 1428 1423 1417 1412 1407 1402 1398 1394 1390 1387 1385 1382 1380 1378 1376 1373 1371 1369 1367 1365 1363 1361 1358 1356
1450 1451 1451 1451 1452 1453 1453 1454 1455 1455 1455 1454 1453 1451 1448 1445 1441 1438 1433 1430 1426 1421 1416 1411 1406 1402 1398 1394 1391 1389 1386 1383 1381 1379 1378 1376 1374 1372 1370 1368 1366 1364 1362 1360
1449 1449 1449 1449 1449 1449 1448 1449 1450 1451 1451 1450 1449 1447 1445 1442 1439 1435 1432 1428 1423 1419 1414 1410 1406 1402 1398 1395 1393 1390 1388 1385 1383 1382 1380 1379 1377 1376 1374 1372 1370 1368 1366 1364
1447 1446 1446 1445 1445 1446 1445 1445 1445 1445 1445 1445 1444 1443 1441 1438 1436 1433 1430 1426 1421 1417 1413 1409 1406 1402 1399 1396 1394 1391 1389 1387 1385 1384 1383 1381 1380 1379 1378 1376 1374 1372 1371 1369
1445 1443 1441 1441 1441 1440 1440 1440 1441 1440 1441 1440 1440 1438 1437 1435 1433 1431 1427 1423 1419 1415 1412 1409 1405 1402 1399 1397 1394 1392 1390 1389 1387 1386 1385 1384 1383 1382 1381 1380 1379 1377 1376 1374
1441 1439 1437 1436 1435 1435 1435 1435 1435 1435 1435 1435 1435 1434 1433 1431 1429 1427 1423 1420 1416 1413 1411 1408 1405 1402 1399 1397 1395 1393 1391 1390 1388 1387 1387 1386 1386 1385 1384 1384 1383 1382 1381 1380
1436 1434 1432 1430 1429 1429 1429 1430 1430 1429 1430 1430 1430 1430 1429 1427 1425 1423 1420 1418 1415 1412 1409 1407 1404 1402 1399 1397 1395 1393 1392 1391 1390 1389 1388 1388 1388 1387 1387 1387 1387 1386 1385 1385
1430 1427 1425 1423 1422 1422 1422 1423 1423 1423 1424 1424 1424 1424 1424 1423 1422 1420 1418 1415 1413 1410 1408 1406 1404 1401 1399 1397 1395 1394 1393 1392 1391 1390 1390 1390 1390 1390 1390 1390 1390 1389 1389 1389